[[{"header":{"parameterUnit":"m.s-1","parameterCategory":1,"la1":30.2992,"la2":30.254,"lo1":-89.0895,"lo2":-89.0443,"dy":0.0025,"dx":0.0025,"nx":19,"ny":19,"refTime":"2026-03-23T21:00:00:Z","depth":0,"parameterNumber":2,"parameterNumberName":"U-component_of_WINDS"},"data":[0,0,0,2.6248,2.6249,2.6329,2.6329,2.6423,2.6424,0,0,0,0,0,0,0,0,0,0,0,2.6218,2.6219,2.6248,2.625,2.6329,2.6329,2.6423,2.6424,0,0,0,0,0,0,0,0,0,0,0,2.6218,2.6218,2.6219,2.625,2.6328,2.6329,2.6423,2.6366,0,0,0,0,0,0,0,0,0,0,2.6291,2.6256,2.6218,2.6219,2.625,2.6328,2.6329,2.6364,2.637,2.6384,0,2.6393,0,2.641,2.643,2.643,0,0,0,2.6255,2.6251,2.6278,2.6219,2.6251,2.6328,2.6294,2.6367,2.6374,2.6392,2.6394,2.6398,2.6411,2.643,2.6431,2.6493,2.6493,0,0,2.625,2.6229,2.6273,2.6282,2.6267,2.6292,2.6297,2.6372,2.6373,2.6395,2.6401,2.6413,2.6431,2.6432,2.6493,2.6493,0,0,0,2.6234,2.6226,2.6251,2.6278,2.6293,2.6294,2.63,2.637,2.638,2.6402,2.6414,2.6431,2.6432,2.6493,2.6493,2.6475,0,0,0,2.6232,2.6217,2.6249,2.6237,2.6291,2.6332,2.6296,2.6375,2.6384,2.6414,2.6431,2.6433,2.6493,2.6493,2.6476,2.647,0,0,0,2.6215,2.6215,2.6224,2.6236,2.6269,2.6331,2.6346,2.6377,2.6391,2.643,2.6433,2.6493,2.6493,2.6476,2.6471,2.6482,0,0,0,2.6191,2.6206,2.6223,2.6245,2.6268,2.6319,2.6345,2.6385,2.6416,2.6432,2.6493,2.6493,2.6476,2.6471,2.6482,2.6488,2.6487,0,0,2.6198,2.6206,2.622,2.6238,2.6281,2.6309,2.635,2.6398,2.6422,2.6469,2.6471,2.6476,2.6471,2.6482,2.6494,2.6493,0,0,0,2.6215,2.6226,2.6242,2.627,2.6308,2.6341,2.6386,2.6405,2.6445,2.6441,2.6483,2.6481,2.6488,2.6492,2.6492,2.65,2.6494,2.6493,2.6493,2.6193,2.6224,2.6251,2.6291,2.6319,2.6366,2.6393,2.6427,2.6448,2.6458,2.6471,2.6475,2.6478,2.6478,2.6487,2.6476,2.6476,2.6476,2.6476,2.6207,2.6227,2.6257,2.6294,2.6327,2.636,2.6408,2.6422,2.6459,2.6466,2.6474,2.6479,2.6477,2.6486,2.6475,2.6475,2.6475,2.6475,2.6476,2.6196,2.6211,2.6234,2.6281,2.6314,2.6356,2.639,2.6419,2.6446,2.6454,2.6473,2.6474,2.6479,2.6461,2.6461,2.6461,2.6461,2.6461,2.6461,2.6176,2.6203,2.6227,2.6271,2.6295,2.633,2.6381,2.6406,2.6442,2.646,2.6461,2.6483,2.6471,2.6467,2.6461,2.6461,2.6461,2.6461,2.6461,2.6179,2.6184,2.6221,2.6245,2.6301,2.6334,2.6371,2.6421,2.6446,2.6463,2.6485,2.647,2.6481,2.6481,2.6479,2.6476,2.6476,2.6476,2.6476,2.617,2.6179,2.6226,2.6263,2.6303,2.6342,2.6387,2.6429,2.6472,2.6491,2.6495,2.6495,2.6494,2.6505,2.6505,2.6503,2.6507,2.6507,2.6507,2.6175,2.6189,2.6221,2.6263,2.631,2.635,2.6395,2.6439,2.6489,2.6509,2.6506,2.6505,2.6504,2.6502,2.652,2.6519,2.6517,0,0]},{"header":{"parameterUnit":"m.s-1","parameterCategory":1,"la1":30.2992,"la2":30.254,"lo1":-89.0895,"lo2":-89.0443,"dy":0.0025,"dx":0.0025,"nx":19,"ny":19,"refTime":"2026-03-23T21:00:00:Z","depth":0,"parameterNumber":3,"parameterNumberName":"V-component_of_WINDS"},"data":[0,0,0,-0.3797,-0.3797,-0.3805,-0.3805,-0.3807,-0.3807,0,0,0,0,0,0,0,0,0,0,0,-0.379,-0.379,-0.3797,-0.3797,-0.3805,-0.3805,-0.3807,-0.3807,0,0,0,0,0,0,0,0,0,0,0,-0.379,-0.379,-0.379,-0.3797,-0.3805,-0.3805,-0.3807,-0.3804,0,0,0,0,0,0,0,0,0,0,-0.3798,-0.3786,-0.379,-0.379,-0.3797,-0.3805,-0.3805,-0.3804,-0.3805,-0.3801,0,-0.3795,0,-0.3801,-0.3807,-0.3807,0,0,0,-0.3801,-0.3786,-0.3793,-0.379,-0.3797,-0.3805,-0.3803,-0.3805,-0.3805,-0.3801,-0.3796,-0.3796,-0.3801,-0.3807,-0.3807,-0.3772,-0.3772,0,0,-0.3801,-0.3789,-0.3793,-0.3793,-0.3791,-0.3802,-0.3803,-0.3805,-0.3798,-0.3796,-0.3796,-0.3802,-0.3807,-0.3807,-0.3772,-0.3772,0,0,0,-0.3797,-0.3788,-0.3795,-0.3792,-0.3794,-0.3802,-0.3803,-0.3798,-0.3801,-0.3796,-0.3802,-0.3807,-0.3807,-0.3773,-0.3772,-0.3744,0,0,0,-0.3797,-0.3786,-0.3795,-0.3787,-0.3794,-0.3796,-0.3796,-0.3801,-0.3802,-0.3802,-0.3807,-0.3807,-0.3773,-0.3772,-0.3745,-0.3732,0,0,0,-0.3791,-0.3785,-0.3785,-0.3787,-0.3789,-0.3797,-0.38,-0.3802,-0.3805,-0.3807,-0.3807,-0.3773,-0.3772,-0.3747,-0.3735,-0.372,0,0,0,-0.3782,-0.3759,-0.3784,-0.3761,-0.3789,-0.3779,-0.38,-0.3793,-0.3791,-0.3807,-0.3773,-0.3772,-0.3747,-0.3736,-0.3721,-0.3705,-0.3697,0,0,-0.3746,-0.3754,-0.3742,-0.3764,-0.3746,-0.3779,-0.3757,-0.3767,-0.3778,-0.3773,-0.3773,-0.3745,-0.3735,-0.372,-0.3658,-0.3651,0,0,0,-0.3726,-0.3717,-0.3715,-0.3713,-0.372,-0.3726,-0.374,-0.3744,-0.3741,-0.3773,-0.3736,-0.373,-0.3722,-0.3715,-0.371,-0.3704,-0.3768,-0.3768,-0.3768,-0.3658,-0.3675,-0.3655,-0.3673,-0.3671,-0.3687,-0.3687,-0.3695,-0.3711,-0.3702,-0.3701,-0.3661,-0.3652,-0.3648,-0.3642,-0.3694,-0.3694,-0.3693,-0.3693,-0.3608,-0.3598,-0.3622,-0.3611,-0.3629,-0.362,-0.3635,-0.3648,-0.3643,-0.3663,-0.3657,-0.3677,-0.3641,-0.3636,-0.3691,-0.3692,-0.3692,-0.3692,-0.3692,-0.3565,-0.3563,-0.3569,-0.3569,-0.3567,-0.3586,-0.3581,-0.3597,-0.3612,-0.3606,-0.3607,-0.3607,-0.361,-0.3605,-0.3605,-0.3605,-0.3605,-0.3605,-0.3604,-0.3519,-0.3526,-0.3519,-0.3526,-0.3528,-0.3532,-0.3549,-0.3551,-0.3558,-0.357,-0.357,-0.3588,-0.3634,-0.3645,-0.3602,-0.3603,-0.3603,-0.3603,-0.3603,-0.3462,-0.3478,-0.3467,-0.3469,-0.3479,-0.3477,-0.3498,-0.3502,-0.3506,-0.3503,-0.3522,-0.3554,-0.3563,-0.3567,-0.3577,-0.3519,-0.3519,-0.3519,-0.3519,-0.3426,-0.3432,-0.3426,-0.3428,-0.3432,-0.345,-0.3439,-0.3453,-0.3469,-0.3473,-0.3484,-0.3498,-0.3502,-0.3509,-0.3514,-0.3524,-0.3453,-0.3453,-0.3453,-0.3392,-0.34,-0.3386,-0.3403,-0.3413,-0.3421,-0.3411,-0.3413,-0.3435,-0.3451,-0.3477,-0.3479,-0.3502,-0.3509,-0.3524,-0.3532,-0.3549,0,0]}]]